Regional Weather Roundup
Issued by NWS

Home | Current Version | Previous Version | Text Only | Print | Product List | Glossary On
Versions: 1 2 3 4 5 6 7 8 9 10 11 12 13 14 15 16 17 18 19 20 21 22 23 24 25 26 27 28 29 30 31 32 33 34 35 36 37 38 39 40 41 42 43 44 45 46 47 48 49 50
654
ASUS45 KBOU 230907
RWRCO

WEATHER ROUNDUP FOR COLORADO
NATIONAL WEATHER SERVICE DENVER/BOULDER CO
200 AM MST THU FEB 23 2017

NOTE: "FAIR" INDICATES FEW OR NO CLOUDS BELOW 12000 FEET WITH NO
SIGNIFICANT WEATHER AND/OR OBSTRUCTIONS TO VISIBILITY.

COZ001>005-013-030-031-231000-
...NORTHWEST COLORADO...

CITY           SKY/WX    TMP DP  RH WIND       PRES   REMARKS
CRAIG          LGT SNOW  29  26  89 CALM      29.52F FOG
HAYDEN         MOCLDY    28  25  86 N3        29.52F
MEEKER         MOCLDY    31  29  92 CALM      29.51F
MOUNT WERNER   NOT AVBL
STEAMBOAT SPGS CLOUDY    32  27  83 CALM      29.52F
WALDEN         NOT AVBL
$$

COZ006>008-011-231000-
...WEST CENTRAL VALLEYS...

CITY           SKY/WX    TMP DP  RH WIND       PRES   REMARKS
GRAND JUNCTION CLOUDY    42  32  67 W18       29.55R
MONTROSE       FAIR      45  16  31 S12       29.59F
EAGLE          FAIR      44  13  28 SW22G35   29.53F
RIFLE          LGT RAIN  48  21  34 SW8G18    29.47F
DELTA          FAIR      49  22  34 S12G26    29.54F
NUCLA          FAIR      43  21  42 S13G20    29.60F
$$

COZ017>023-064>068-231000-
...SOUTHWEST COLORADO...

CITY           SKY/WX    TMP DP  RH WIND       PRES   REMARKS
DURANGO        FAIR      35  18  49 SW3       29.69F
CORTEZ         CLOUDY    41  25  53 W13G22    29.64F
PAGOSA SPRINGS FAIR      36  20  51 W5        29.71S
TELLURIDE      CLOUDY    32  16  52 S10G16    29.64F WCI  24
WOLF CREEK PAS CLOUDY    19  18  93 S32G51    29.69F FOG     WCI   0
$$

COZ009-010-012-014-032>034-037-058>063-231000-
...CENTRAL COLORADO...

CITY           SKY/WX    TMP DP  RH WIND       PRES   REMARKS
ASPEN          CLOUDY    40   8  26 S20G25    29.54F
BUENA VISTA    FAIR      31  19  61 SE14      29.58F WCI  21
COPPER MTN     CLOUDY    27   9  46 MISG      29.61F
BERTHOUD PASS  HAZE      12   3  67 SE23G36   29.62F VSB<1/4 WCI  -7
COTTONWOOD PAS FAIR      34   0  23 S16G35    29.61F WCI  23
GUNNISON       FAIR      21  17  84 CALM      29.62F
KREMMLING      FAIR      37  21  52 SW13G20   29.53F
LEADVILLE      CLOUDY    27   8  44 S8G20     29.57F WCI  19
MONARCH PASS   FAIR      19   5  53 SW41G61   29.73F WCI  -2
SALIDA         FAIR      39  17  39 S12       29.68F
SUNLIGHT       NOT AVBL
WILKERSON PASS MOCLDY    23  10  58 SW12G21   29.66F WCI  12
$$

COZ069>075-231000-
...SAN LUIS VALLEY/SANGRE DE CRISTO MOUNTAINS...

CITY           SKY/WX    TMP DP  RH WIND       PRES   REMARKS
ALAMOSA        FAIR      37  23  56 S20G26    29.66F
LA VETA PASS   CLOUDY    30  19  64 N30G45    29.68F WCI  15
SAGUACHE       FAIR      27  21  80 N6        29.65F WCI  20
$$

COZ035-036-038>040-231000-
...NORTHERN COLORADO FRONT RANGE...

CITY           SKY/WX    TMP DP  RH WIND       PRES   REMARKS
DENVER INTL AP FAIR      29  24  82 N13       29.67F WCI  19
DMNS CITY PARK   N/A     33  24  71 N3        29.67F
AURORA         PTCLDY    28  25  88 N8        29.67F WCI  20
FRONT RANGE AP FAIR      28  25  86 NW9       29.67F WCI  20
ERIE MUNI ARPT FAIR      28  24  87 CALM      29.69F
BOULDER MUN AP CLOUDY    34  28  80 NW3       29.69F
CENTENNIAL     FAIR      30  23  75 N7        29.66F WCI  23
BROOMFIELD     FAIR      32  27  80 N9        29.68F WCI  24
FORT COLLINS   MOCLDY    35  27  72 NE6       29.71F WCI  30
LONGMONT       CLOUDY    37  29  73 N6        29.72F
$$

COZ041-046-047-076>085-087-088-231000-
...PIKES PEAK/PALMER DIVIDE AND SOUTHERN FOOTHILLS...

CITY           SKY/WX    TMP DP  RH WIND       PRES   REMARKS
COLO. SPRINGS  FAIR      34  15  46 NW7       29.63S WCI  28
A. F. ACADEMY  FAIR      29  15  56 N14       29.62F WCI  18
SCHRIEVER AFB  FAIR      32  17  54 N21G28    29.61F WCI  19
ELLICOTT       FAIR       1 N/A N/A N6        29.60F WCI -10
FALCON         FAIR      30  16  57 N16G23    29.62F WCI  18
FORT CARSON    FAIR      35  15  44 N16G25    29.60F WCI  25
LIMON          FAIR      22  15  75 NW5       29.62F WCI  16
MONUMENT HILL  FAIR      19  16  86 NW8       29.67F WCI   9
TRINIDAD       FAIR      49  21  33 S6        29.63F
$$

COZ042>045-048>051-090-091-231000-
...NORTHEAST COLORADO...

CITY           SKY/WX    TMP DP  RH WIND       PRES   REMARKS
GREELEY ARPT   MOCLDY    32  27  81 N9        29.71F WCI  24
AKRON          CLOUDY    32  29  88 E26G33    29.64F WCI  18
BURLINGTON     FAIR      40  24  53 E15       29.62F
WRAY           NOT AVBL
STERLING       CLOUDY    34  30  86 NE9       29.69F WCI  26
HOLYOKE        CLOUDY    36  32  87 NE17G24   29.72S
FORT MORGAN    CLOUDY    34  29  83 NE18G28   29.69S WCI  23
$$

COZ086-089-092>099-231000-
...SOUTHEAST COLORADO...

CITY           SKY/WX    TMP DP  RH WIND       PRES   REMARKS
PUEBLO         FAIR      38  17  42 N12       29.59F
LA JUNTA       FAIR      39  20  46 NW12      29.59F
LAMAR          FAIR      41  24  51 MISG      29.56F
SPRINGFIELD      N/A     56  24  29 W14G23    29.61F
$$




USA.gov is the U.S. government's official web portal to all federal, state and local government web resources and services.